Regional Weather Roundup
Issued by NWS State College, PA

Current Version | Previous Version | Text Only | Print | Product List | Glossary On
Versions: 1 2 3 4 5 6 7 8 9 10 11 12 13 14 15 16 17 18 19 20 21 22 23 24 25 26 27 28 29 30 31 32 33 34 35 36 37 38 39 40 41 42 43 44 45 46 47 48 49 50
000
ASUS41 KCTP 132210
RWRCTP

REGIONAL WEATHER ROUNDUP
NATIONAL WEATHER SERVICE STATE COLLEGE PA
500 PM EST THU DEC 13 2018

Note: "fair" indicates few or no clouds below 12,000 feet with no
significant weather and/or obstructions to visibility.

* = STATION THAT DOES NOT REPORT PRECIPITATION /E.G. RAIN...SNOW...ETC/
    THUNDER OR FOG.

PAZ002>004-007>009-013>016-020>023-029>032-132300-
WESTERN PENNSYLVANIA

CITY           SKY/WX    TMP DP  RH WIND       PRES   REMARKS
ERIE           FAIR      39  32  76 NE3       30.22R
MEADVILLE      FAIR      39  31  72 CALM      30.20R
FRANKLIN*      NOT AVBL
NEW CASTLE     FAIR      42  34  73 S3        30.22R
BEAVER COUNTY  MOCLDY    43  36  75 CALM      30.20R
BUTLER*        FAIR      43  35  73 CALM      30.22R
PITTSBURGH INT MOCLDY    45  35  68 S3        30.21R
PITTSBURGH     FAIR      46  36  68 S3        30.21R
INDIANA*       CLEAR     39  36  87 CALM      30.26R
LATROBE        PTCLDY    46  37  71 SW7       30.22R
WASHINGTON CO* FAIR      45  36  70 CALM      30.25R
$$

PAZ004>006-010>012-017>019-024>028-033>037-041-042-045-046-049>053-132300-
CENTRAL PENNSYLVANIA

CITY           SKY/WX    TMP DP  RH WIND       PRES   REMARKS
BRADFORD       CLOUDY    33  29  85 SE7       30.21R FOG
DUBOIS         CLOUDY    37  29  72 SE9       30.22R
CLEARFIELD     FAIR      34  29  82 NE7       30.26R
JOHNSTOWN      FAIR      38  30  73 SE8       30.21R
ALTOONA        FAIR      36  28  73 NE3       30.27R HAZE
STATE COLLEGE  CLEAR     36  30  80 SE3       30.30R HAZE
WILLIAMSPORT   CLOUDY    38  33  82 E9        30.34R
SELINSGROVE    CLOUDY    35  32  88 N3        30.36R FOG
FT INDIANTOWN  MOCLDY    39  32  76 NE6       30.36R
CAPITAL CITY   FAIR      43  33  68 E7        30.35R
HARRISBURG     CLOUDY    42  33  70 NE5       30.34R
YORK           FAIR      34  30  85 CALM      30.33R
$$

PAZ038>040-043-044-047-048-054-055-060>062-067>071-132300-
EASTERN PENNSYLVANIA

CITY           SKY/WX    TMP DP  RH WIND       PRES   REMARKS
SCRANTON       CLOUDY    34  31  88 NE6       30.36R
MOUNT POCONO   LGT SNOW  27  27 100 VRB5      30.34R FOG
ALLENTOWN      CLOUDY    35  29  78 NE7       30.40R
QUAKERTOWN*    MOCLDY    37  32  81 NE5G12    30.39R
READING        CLOUDY    38  34  85 N7        30.36R
LANCASTER      CLOUDY    42  35  76 NE6       30.35R
COATESVILLE    MOCLDY    43  34  70 E6        30.36R
POTTSTOWN      CLOUDY    39  31  72 NE7       30.39R
BLUE BELL      CLOUDY    39  32  75 NE3       30.40R
DOYLESTOWN     CLOUDY    37  30  75 VRB6      30.39R
WILLOW GROVE   NOT AVBL
NORTH PHILA    CLOUDY    47  34  60 E7        30.40R
PHILADELPHIA   CLOUDY    44  33  65 E6        30.39R
$$



USA.gov is the U.S. government's official web portal to all federal, state and local government web resources and services.